Cloud_Cover
0 0 0 0 0 0 0 0 0 0 44 100 100 100 100 100 5 5 19 6 5 0 0 0 0 0 0 4 0 1 0 1 0 11 100 100 100 100 100 100 92 100 100 69
0 0 0 0 0 0 0 0 0 0 5 44 66 6 55 4 0 4 16 28 1 5 4 0 0 0 0 0 0 2 9 4 3 2 5 100 100 86 100 100 100 77 96 78
0 0 0 0 0 0 0 0 0 0 0 0 2 1 0 0 0 0 3 4 36 20 17 8 10 0 0 0 0 0 0 0 0 7 20 80 100 26 83 100 100 100 96 5
5 5 5 3 0 0 0 0 0 0 0 0 0 0 0 0 0 1 27 67 97 0 0 89 100 2 0 0 0 0 0 0 0 23 3 99 88 97 5 87 100 17 82 53
2 5 5 5 5 0 0 0 0 0 0 0 0 0 0 0 0 35 58 54 100 10 2 9 100 0 0 0 0 0 0 4 0 5 1 66 28 5 43 20 93 98 100 6
0 0 0 5 5 5 5 4 0 0 0 0 0 0 0 0 5 25 34 1 17 40 44 0 0 0 0 0 0 0 0 0 0 1 0 46 93 16 60 50 43 62 59 98
0 0 0 5 78 90 24 5 4 0 0 0 0 0 0 0 9 2 50 6 15 6 61 0 2 0 0 0 0 0 0 0 0 0 0 55 56 100 100 60 50 26 44 50
0 0 0 22 100 100 100 46 6 0 0 0 0 0 2 2 7 39 5 0 4 87 50 2 0 0 0 0 0 0 0 0 0 0 76 29 100 15 100 77 88 5 87 41
29 2 0 10 12 79 78 99 84 6 6 1 0 20 92 87 61 4 81 60 3 0 0 0 0 0 0 0 0 0 0 0 0 0 54 100 13 15 20 100 9 5 30 51
100 54 88 52 100 100 78 100 100 86 12 5 24 85 41 73 97 2 63 67 70 0 0 0 0 0 0 0 0 0 0 0 0 0 44 60 100 99 100 60 5 3 5 37
100 100 100 20 100 18 100 95 100 100 100 99 100 100 5 5 100 16 4 5 58 0 0 0 0 0 3 0 0 0 0 0 0 0 0 68 97 100 100 100 10 0 15 18
100 87 81 85 84 100 100 98 99 100 100 100 100 100 32 73 6 5 5 68 5 4 4 5 20 6 5 0 0 0 0 0 0 0 1 17 99 100 100 100 100 100 88 88
100 100 100 100 100 100 100 99 100 78 61 71 100 100 100 31 18 5 100 100 100 100 10 87 4 0 0 0 0 0 0 0 0 0 0 80 100 100 100 100 100 100 100 78
100 81 46 26 68 100 100 100 100 100 89 13 50 92 100 10 5 2 100 100 100 100 95 28 37 4 4 0 0 0 0 0 0 0 0 76 100 100 100 100 96 81 100 51
100 100 100 100 100 100 100 100 50 34 94 98 64 21 4 0 0 0 98 100 100 100 100 9 5 5 0 0 0 0 0 0 0 0 0 11 100 100 100 100 43 99 81 24
100 60 51 100 100 100 100 100 100 72 29 5 26 8 29 5 0 0 1 98 100 100 98 7 60 1 1 0 0 0 0 0 0 0 22 100 71 100 100 100 100 100 100 100
100 100 28 63 100 99 100 100 90 20 0 0 1 60 71 1 76 11 4 0 94 100 95 79 99 9 4 0 0 0 0 5 8 1 3 55 61 100 100 100 100 100 100 96
100 100 72 100 100 100 100 31 8 17 66 65 100 100 100 95 4 64 100 100 92 23 54 89 43 5 1 3 9 3 45 74 8 47 100 100 100 100 100 100 100 100 78 94
100 100 100 100 100 100 81 4 41 100 100 100 100 100 100 100 100 100 100 100 100 100 32 97 25 12 5 4 3 65 69 51 97 100 100 100 100 100 100 100 100 100 100 100
61 98 100 100 100 100 91 5 100 100 100 100 100 100 100 100 100 100 100 100 100 100 100 100 98 100 12 0 0 23 26 94 100 100 100 100 100 100 100 100 100 100 100 100
78 94 100 100 14 4 2 73 100 100 100 100 100 100 100 100 100 100 100 100 100 100 100 100 100 100 4 0 4 100 100 100 100 100 100 100 100 100 100 100 100 100 100 100
96 100 100 86 1 74 2 74 100 100 100 100 100 100 100 100 100 100 100 100 100 100 100 100 87 8 0 0 25 90 72 100 100 100 100 100 100 100 100 100 100 100 100 100
99 38 98 7 100 99 100 98 100 100 100 100 100 100 100 100 100 100 100 100 100 100 100 80 5 0 61 100 42 78 26 100 92 100 100 100 100 100 100 100 100 100 100 100
78 17 98 100 100 100 100 100 100 100 100 100 100 100 100 100 100 100 100 100 100 100 97 17 0 41 32 22 22 59 16 98 100 100 100 100 100 100 100 100 100 100 100 100
100 100 100 100 100 100 100 100 100 100 100 100 100 100 100 100 100 73 96 9 12 18 16 2 0 20 31 8 0 8 6 100 100 100 100 100 100 100 100 100 100 100 100 100
96 100 100 100 100 100 100 100 100 100 91 87 54 96 100 100 100 62 5 40 5 9 3 0 2 0 24 0 4 23 13 74 100 100 100 100 100 100 100 100 100 100 100 100